SCOUT X-4 R/B, 933

Orbit data source: Space-Track

SCOUT X-4 R/B, 933 is space debris in LEO originally from a launch on Sat, 21 Nov 1964 UTC launched from the Air Force Western Test Range (AFWTR). Debris objects in space refer to the collection of defunct objects orbiting the Earth. Examples of debris include non-operational satellites, rocket bodies, and fragments generated from explosions, collisions, or faulty payload assembly.

Loading next visibility...
Identifier
933, 1964-076C
Orbit
LEO
Country
Flag of USUS
Related business
Manufacturer
ABL
Mission
Spacecraft
Bus & Motor
ALTAIR, Unknown motor
Mass
33 kg wet, 33 kg dry
Launch date (UTC)
1964-11-21 (61 years ago)
Launch vehicle
Unknown
Launch site
Air Force Western Test Range (AFWTR)
Object type
Payload
Rocket body
Debris
Shape & HBR
Unknown
Radar Cross Section
Medium (>0.1 m² and <1 m²)

Expand to show TLE details & history
Last TLE update: 6 hours ago

TLE from 6 hours ago
0 SCOUT X-4 R/B
1   933U 64076C   25299.44218078  .00001293  00000-0  42867-3 0  9994
2   933  81.3365 334.5845 1052477 178.4975 181.9758 12.81916389806621
Epoch: 2025-10-26T10:36Z
TLE epoch observation values (Epoch: 2025-10-26T10:36:44.419Z)
Latitude
0.00005°
Longitude
140.34111°
Altitude
2,147.948 km
Speed
6.469 km/s
True Right ascension
22h 18m 20s
True Declination
0° 00' 00"
Sunlit
Object was in daylight at epoch
Visualization orbit readout
Latitude
Unknown
Longitude
Unknown
Altitude
Unknown
Speed
Unknown
Apparent Right ascension
Unknown
Apparent Declination
Unknown
Sunlit
N/A
Visualization observer readout
Local Sidereal Time
12:22:00
Azimuth
Unknown
Elevation
Unknown
Doppler factor
Unknown
Orbital elements
Apogee altitude
2,142.451 km
Perigee altitude
519.697 km
Semi-major axis
7,709.211 km
Eccentricity
0.10525
Inclination
81.3365°
RAAN
334.5845°
Arg. of periapsis
178.4975°
True anomaly
181.60849°
Mean anomaly
181.9758°
Eccentric anomaly
181.78768°
Mean motion
3.20648 °/min
Orbital period
112.27 mins
BSTAR
0.00042867
Loading maneuver chart data...
Computing Atmospheric mass density...
Loading historical data...
Loading historical data...
Loading historical data...
Loading historical data...
Loading historical data...
Loading historical data...
Loading historical data...

Documentation

Showing up to 5 results
|